STARLINK-32309, 61676

Orbit data source: Space-Track

STARLINK-32309, 61676 is a payload satellite owned by SpaceX/Seattle (US) in LEO that was launched on Sat, 26 Oct 2024 UTC via an FALCON 9 launch vehicle from the Air Force Eastern Test Range (AFETR). Payload-class satellites include a variety of spacecraft equipped with specific instruments for various scientific and technological missions. These include communications satellites like Starlink; space stations such as the ISS; scientific satellites like the Hubble; Earth observation satellites from companies like Planet Labs, Umbra, and HawkEye 360; GPS; miniature CubeSats for education and research; and military/defense satellites.

Loading next visibility...
Identifier
61676, 2024-193R
Orbit
LEO
Country
Flag of USUS
Related business
Manufacturer
SpaceX/Seattle
Mission
Operational Commercial Communications
Bus & Motor
STARLINK V2M, Unknown motor
Mass
730 kg wet, ~700 kg dry
Launch date (UTC)
2024-10-26 (2 years ago)
Launch vehicle
FALCON 9
Launch site
Air Force Eastern Test Range (AFETR)
Object type
Payload
Rocket body
Debris
Shape & HBR
Box + 2 Pan, 17.7 m
Radar Cross Section
33.884 m², Large (>1 m²)

Expand to show TLE details & history
Last TLE update: 9 hours ago

TLE from 9 hours ago
0 STARLINK-32309
1 61676U 24193R   26171.46353071  .00000277  00000-0  19336-4 0  9993
2 61676  53.1618 332.0843 0001374  93.7356 266.3804 15.34389992 92286
Epoch: 2026-06-20T11:07Z
TLE epoch observation values (Epoch: 2026-06-20T11:07:29.053Z)
Latitude
0.00001°
Longitude
-103.46454°
Altitude
463.694 km
Speed
7.636 km/s
True Right ascension
22h 08m 20s
True Declination
0° 00' 00"
Sunlit
Object was in full shadow at epoch
Visualization orbit readout
Latitude
Unknown
Longitude
Unknown
Altitude
Unknown
Speed
Unknown
Apparent Right ascension
Unknown
Apparent Declination
Unknown
Sunlit
N/A
Visualization observer readout
Local Sidereal Time
07:19:02
Azimuth
Unknown
Elevation
Unknown
Doppler factor
Unknown
Orbital elements
Apogee altitude
463.93 km
Perigee altitude
462.05 km
Semi-major axis
6,841.127 km
Eccentricity
0.00014
Inclination
53.1618°
RAAN
332.0843°
Arg. of periapsis
93.7356°
True anomaly
266.36469°
Mean anomaly
266.3804°
Eccentric anomaly
266.37254°
Mean motion
3.83576 °/min
Orbital period
93.85 mins
BSTAR
0.000019336
Loading maneuver chart data...
Computing Atmospheric mass density...
Loading historical data...
Loading historical data...
Loading historical data...
Loading historical data...
Loading historical data...
Loading historical data...
Loading historical data...

Documentation

Showing up to 5 results
|